Waarnemingen

Advertentie
Mijn weer
Isle Of Portland, Groot Brittannië (3857): temperatuur & dauwpunt: 26.03.2020 15:00:00 - 01.04.2020 15:00:00 (BST)Isle Of Portland, Groot Brittannië (3857): windsnelheid & windstoten: 26.03.2020 15:00:00 - 01.04.2020 15:00:00 (BST)Isle Of Portland, Groot Brittannië (3857): windrichting: 26.03.2020 15:00:00 - 01.04.2020 15:00:00 (BST)Isle Of Portland, Groot Brittannië (3857): luchtdruk: 26.03.2020 15:00:00 - 01.04.2020 15:00:00 (BST)Isle Of Portland, Groot Brittannië (3857): zicht: 26.03.2020 15:00:00 - 01.04.2020 15:00:00 (BST)Isle Of Portland, Groot Brittannië (3857): neerslag: 26.03.2020 15:00:00 - 01.04.2020 15:00:00 (BST)
Datum & Tijd tt [°C] td [°C] ff [km/u] ff [kn] fx [km/u] fx [kn] dd ppp [hPa] vv [km] rr [mm]
01.04.2020 15:00:00 8,4 0,3 9 5 - - W 1023,0 35 0,0
01.04.2020 14:00:00 8,5 0,3 9 5 - - ZZO 1023,5 26 0,0
01.04.2020 13:00:00 8,4 -0,1 11 6 - - ZO 1024,1 29 0,0
01.04.2020 12:00:00 8,2 -0,1 16 9 - - ONO 1024,8 26 0,0
01.04.2020 11:00:00 7,9 0,9 18 10 - - NO 1025,3 22 0,0
01.04.2020 10:00:00 6,3 1,0 18 10 - - NO 1025,6 23 0,0
01.04.2020 09:00:00 5,3 0,9 16 9 - - NO 1026,0 24 0,0
01.04.2020 08:00:00 4,0 0,7 13 7 - - NO 1025,8 25 0,0
01.04.2020 07:00:00 2,4 -0,2 16 9 - - NO 1025,8 27 0,0
01.04.2020 06:00:00 2,7 -0,5 18 10 - - NO 1025,8 25 0,0
01.04.2020 05:00:00 2,9 -0,5 22 12 - - ONO 1026,3 25 0,0
01.04.2020 04:00:00 3,4 -0,6 22 12 - - NO 1026,7 40 0,0
01.04.2020 03:00:00 3,9 -0,6 18 10 - - ONO 1027,2 35 0,0
01.04.2020 02:00:00 4,6 -0,4 24 13 - - ONO 1027,6 35 0,0
01.04.2020 01:00:00 5,0 1,3 18 10 - - NO 1027,9 24 0,0
01.04.2020 00:00:00 5,3 1,2 18 10 - - ONO 1028,3 20 0,0
31.03.2020 23:00:00 5,0 2,3 11 6 - - NO 1028,4 19 0,0
31.03.2020 22:00:00 5,9 3,3 15 8 - - ONO 1028,8 20 0,0
31.03.2020 21:00:00 6,6 3,3 16 9 - - O 1029,1 20 0,0
31.03.2020 20:00:00 6,7 2,8 21 11 - - O 1029,0 24 0,0
31.03.2020 19:00:00 7,3 2,1 22 12 - - O 1028,9 24 0,0
31.03.2020 18:00:00 8,2 1,9 24 13 - - O 1029,0 30 0,0
31.03.2020 17:00:00 8,7 2,1 26 14 - - O 1029,3 30 0,0
31.03.2020 16:00:00 9,4 3,7 34 18 - - OZO 1029,5 27 0,0
31.03.2020 15:00:00 9,8 2,2 26 14 - - O 1030,1 30 0,0
31.03.2020 14:00:00 10,0 2,5 34 18 - - O 1030,5 26 0,0
31.03.2020 13:00:00 9,9 2,9 34 18 48 26 O 1030,9 26 0,0
31.03.2020 12:00:00 9,4 2,9 39 21 50 27 O 1031,0 25 0,0
31.03.2020 11:00:00 8,3 2,6 39 21 48 26 ONO 1031,4 35 0,0
31.03.2020 10:00:00 6,9 2,4 34 18 54 29 NO 1031,7 25 0,0
31.03.2020 09:00:00 5,6 1,9 35 19 57 31 NO 1031,4 25 0,0
31.03.2020 08:00:00 4,6 1,6 35 19 52 28 NO 1031,4 23 0,0
31.03.2020 07:00:00 3,7 1,2 28 15 50 27 NO 1031,2 30 0,0
31.03.2020 06:00:00 3,9 1,5 31 17 - - NO 1030,9 30 0,0
31.03.2020 05:00:00 4,3 1,5 28 15 - - NO 1030,8 30 0,0
31.03.2020 04:00:00 4,6 1,9 26 14 - - NO 1030,9 30 0,0
31.03.2020 03:00:00 5,2 2,0 28 15 46 25 NO 1031,2 40 0,0
31.03.2020 02:00:00 5,6 2,3 29 16 - - NO 1031,4 40 0,0
31.03.2020 01:00:00 5,8 2,3 28 15 46 25 NO 1031,6 45 0,0
31.03.2020 00:00:00 6,5 2,3 28 15 - - NO 1031,7 45 0,0
30.03.2020 23:00:00 6,8 2,2 22 12 - - NNO 1031,9 35 0,0
30.03.2020 22:00:00 6,9 1,7 18 10 - - NNO 1032,0 45 0,0
30.03.2020 21:00:00 7,0 2,1 24 13 - - NNO 1031,7 50 0,0
30.03.2020 20:00:00 7,3 2,5 26 14 - - NNO 1031,2 50 0,0
30.03.2020 19:00:00 7,6 1,6 24 13 - - NNO 1031,0 45 0,0
30.03.2020 18:00:00 9,0 1,3 29 16 - - NNO 1031,1 45 0,0
30.03.2020 17:00:00 8,5 1,6 26 14 46 25 NO 1031,5 45 0,0
30.03.2020 16:00:00 9,4 2,1 28 15 - - NNO 1032,0 40 0,0
30.03.2020 15:00:00 9,5 2,0 31 17 48 26 NNO 1032,5 19 0,0
30.03.2020 14:00:00 9,6 1,3 29 16 - - NO 1033,2 50 0,0
30.03.2020 13:00:00 9,1 1,8 29 16 - - NO 1034,0 35 0,0
30.03.2020 12:00:00 8,7 1,5 26 14 - - NO 1034,9 45 0,0
30.03.2020 11:00:00 7,8 0,5 26 14 - - NO 1035,8 30 0,0
30.03.2020 10:00:00 6,5 -1,0 22 12 - - NNO 1036,2 27 0,0
30.03.2020 09:00:00 3,8 -1,2 22 12 - - NNO 1036,6 35 0,0
30.03.2020 08:00:00 2,8 -1,2 24 13 - - NNO 1037,1 35 0,0
30.03.2020 07:00:00 1,7 -1,9 22 12 - - N 1037,0 35 0,0
30.03.2020 06:00:00 2,2 -1,5 24 13 - - N 1037,1 35 0,0
30.03.2020 05:00:00 2,5 -1,2 22 12 - - NNO 1037,5 30 0,0
30.03.2020 04:00:00 2,6 -1,2 29 16 - - NNO 1037,8 40 0,0
30.03.2020 03:00:00 2,4 -1,8 24 13 - - NNO 1038,5 30 0,0
30.03.2020 02:00:00 3,0 -1,8 26 14 - - NNO 1039,2 45 0,0
30.03.2020 01:00:00 2,6 -2,5 22 12 - - NO 1039,4 45 0,0
30.03.2020 00:00:00 3,2 -2,6 26 14 48 26 NO 1039,9 30 0,0
29.03.2020 23:00:00 3,5 -3,1 29 16 46 25 NO 1039,9 40 0,0
29.03.2020 22:00:00 4,1 -4,2 26 14 52 28 NO 1039,4 45 0,0
29.03.2020 21:00:00 4,7 -5,4 35 19 55 30 NO 1039,2 50 0,0
29.03.2020 20:00:00 5,6 -6,1 42 23 63 34 NO 1038,3 50 0,0
29.03.2020 19:00:00 6,5 -6,5 41 22 65 35 NO 1037,8 50 0,0
29.03.2020 18:00:00 7,6 -5,4 42 23 67 36 NO 1037,3 40 0,0
29.03.2020 17:00:00 8,4 -5,2 41 22 61 33 NO 1036,9 40 0,0
29.03.2020 16:00:00 9,0 -3,9 39 21 61 33 NO 1036,9 35 0,0
29.03.2020 15:00:00 9,0 -3,8 37 20 63 34 NO 1037,2 30 0,0
29.03.2020 14:00:00 8,4 -4,3 41 22 63 34 NO 1037,3 21 0,0
29.03.2020 13:00:00 8,1 -2,5 41 22 63 34 NNO 1037,6 15 0,0
29.03.2020 12:00:00 7,5 -4,0 42 23 63 34 NNO 1037,7 30 0,0
29.03.2020 11:00:00 6,4 -3,4 44 24 63 34 NNO 1037,2 30 0,0
29.03.2020 10:00:00 5,8 -2,4 39 21 61 33 NO 1037,5 28 0,0
29.03.2020 09:00:00 4,5 -2,2 35 19 59 32 NO 1037,3 24 0,0
29.03.2020 08:00:00 3,2 -2,1 24 13 - - NNO 1037,3 28 0,0
29.03.2020 07:00:00 3,3 -2,1 31 17 54 29 NNO 1036,6 22 0,0
29.03.2020 06:00:00 3,2 -2,2 35 19 59 32 NO 1036,0 30 0,0
29.03.2020 05:00:00 3,5 -0,7 46 25 63 34 NO 1035,4 30 0,0
29.03.2020 04:00:00 3,9 -0,7 35 19 57 31 NO 1035,1 26 0,0
29.03.2020 03:00:00 4,4 -0,5 39 21 67 36 NO 1034,8 24 0,0
29.03.2020 02:00:00 4,4 -0,5 34 18 61 33 NO 1034,5 29 0,0
29.03.2020 01:00:00 4,8 -0,6 39 21 65 35 NO 1033,8 35 0,0
29.03.2020 00:00:00 5,4 -1,2 37 20 65 35 NO 1033,4 30 0,0
28.03.2020 23:00:00 6,3 -2,4 46 25 70 38 NO 1032,5 40 0,0
28.03.2020 22:00:00 7,1 0,7 41 22 63 34 NO 1031,7 30 0,0
28.03.2020 21:00:00 8,0 0,1 37 20 70 38 NO 1031,1 40 0,0
28.03.2020 20:00:00 8,8 1,4 34 18 63 34 NO 1029,8 45 0,0
28.03.2020 19:00:00 9,1 1,9 39 21 63 34 NO 1028,8 35 0,0
28.03.2020 18:00:00 9,8 3,0 35 19 63 34 NO 1028,1 35 0,0
28.03.2020 17:00:00 10,1 3,0 41 22 63 34 NO 1027,7 30 0,0
28.03.2020 16:00:00 10,7 3,2 42 23 67 36 NO 1027,3 30 0,0
28.03.2020 15:00:00 12,2 3,8 37 20 54 29 NO 1027,0 19 0,0
28.03.2020 14:00:00 12,9 2,6 34 18 55 30 NO 1027,0 20 0,0
28.03.2020 13:00:00 11,4 2,0 37 20 55 30 NO 1027,0 18 0,0
28.03.2020 12:00:00 10,4 1,9 42 23 55 30 NO 1026,7 16 0,0
28.03.2020 11:00:00 9,0 2,4 34 18 54 29 NO 1026,4 17 0,0
28.03.2020 10:00:00 7,5 2,4 39 21 55 30 NNO 1026,2 20 0,0
28.03.2020 09:00:00 6,0 2,2 34 18 50 27 NO 1025,8 16 0,0
28.03.2020 08:00:00 4,9 1,9 29 16 48 26 NO 1025,7 14 0,0
28.03.2020 07:00:00 4,5 1,4 28 15 48 26 NO 1025,1 14 0,0
28.03.2020 06:00:00 4,5 1,5 31 17 48 26 NO 1024,7 15 0,0
28.03.2020 05:00:00 4,6 1,0 34 18 50 27 NNO 1024,5 15 0,0
28.03.2020 04:00:00 4,9 0,8 34 18 48 26 NO 1024,2 20 0,0
28.03.2020 03:00:00 5,2 0,6 29 16 46 25 NO 1024,4 19 0,0
28.03.2020 02:00:00 5,6 -0,4 29 16 48 26 NNO 1024,5 19 0,0
28.03.2020 01:00:00 6,0 -1,2 31 17 46 25 NNO 1024,6 25 0,0
28.03.2020 00:00:00 6,8 -1,1 29 16 46 25 NNO 1024,5 24 0,0
27.03.2020 23:00:00 7,8 -0,2 35 19 48 26 NNO 1024,2 26 0,0
27.03.2020 22:00:00 8,7 0,9 29 16 46 25 NNO 1023,7 23 0,0
27.03.2020 21:00:00 9,4 2,6 22 12 - - NNO 1023,4 16 0,0
27.03.2020 20:00:00 10,2 2,4 22 12 - - NNO 1022,8 17 0,0
27.03.2020 19:00:00 11,2 2,1 21 11 - - NNO 1022,2 20 0,0
27.03.2020 18:00:00 11,7 0,9 8 4 - - O 1021,8 19 0,0
27.03.2020 17:00:00 11,5 1,0 8 4 - - OZO 1021,9 17 0,0
27.03.2020 16:00:00 12,1 1,5 11 6 - - ONO 1022,4 16 0,0
27.03.2020 15:00:00 12,4 2,2 13 7 - - O 1022,8 17 0,0
27.03.2020 14:00:00 11,9 2,0 21 11 - - ONO 1023,1 30 0,0
27.03.2020 13:00:00 11,1 2,0 24 13 - - ONO 1023,6 23 0,0
27.03.2020 12:00:00 9,8 1,2 24 13 - - NO 1023,8 18 0,0
27.03.2020 11:00:00 8,6 2,6 26 14 - - NNO 1023,8 16 0,0
27.03.2020 10:00:00 6,7 2,3 26 14 - - NNO 1023,6 13 0,0
27.03.2020 09:00:00 5,0 1,5 26 14 - - NNO 1023,2 12 0,0
27.03.2020 08:00:00 3,6 0,4 28 15 - - NNO 1023,2 13 0,0
27.03.2020 07:00:00 3,0 -0,2 21 11 - - NO 1022,7 14 0,0
27.03.2020 06:00:00 3,5 -0,2 24 13 - - NO 1022,6 15 0,0
27.03.2020 05:00:00 3,9 -0,9 26 14 - - NO 1022,6 20 0,0
27.03.2020 04:00:00 4,0 -1,8 24 13 - - NO 1022,5 22 0,0
27.03.2020 03:00:00 4,7 -1,8 21 11 - - NO 1022,7 23 0,0
27.03.2020 02:00:00 5,3 -3,2 16 9 - - NO 1022,7 30 0,0
27.03.2020 01:00:00 5,8 -3,3 22 12 - - NO 1022,7 30 0,0
27.03.2020 00:00:00 6,7 -0,7 26 14 - - ONO 1022,6 35 0,0
26.03.2020 23:00:00 6,9 4,0 9 5 - - ONO 1022,6 11 0,0
26.03.2020 22:00:00 6,8 3,8 9 5 - - O 1022,2 13 0,0
26.03.2020 21:00:00 7,2 4,2 5 3 - - N 1022,1 12 0,0
26.03.2020 20:00:00 7,4 4,3 9 5 - - O 1021,7 10 0,0
26.03.2020 19:00:00 8,8 4,4 13 7 - - OZO 1021,3 14 0,0
26.03.2020 18:00:00 9,6 2,9 9 5 - - O 1021,0 17 0,0
26.03.2020 17:00:00 10,0 4,0 13 7 - - OZO 1021,2 23 0,0
26.03.2020 16:00:00 11,3 2,2 16 9 - - OZO 1021,5 22 0,0
26.03.2020 15:00:00 - - - - - - - - - -

tt = temperatuur
td = dauwpunt
ff = windsnelheid
fx = windstoten
dd = windrichting
ppp = luchtdruk
vv = zicht
rr = neerslag

Weerstations in de omgeving